Location: Castifao
(42.5040°N, 9.1124°E)
Time: 14:40:11
(UTC+00:00)

Cosmos 1356 Rocket - Pass Details

Date: 23 January 2020
Orbit: 543 x 598 km, 81.2° (Epoch: 26 February)

Event Time Altitude Azimuth Distance (km) Brightness Sun altitude
Rises 17:47:50 0° 358° (N) 2,730 6.8 -15.2°
Reaches altitude 10° 17:50:08 10° 8° (N) 1,837 5.8 -15.7°
Maximum altitude 17:53:52 35° 75° (ENE) 913 3.9 -16.3°
Enters shadow 17:56:00 21° 127° (SE) 1,293 4.8 -16.7°
Exits shadow 17:58:48 - 148° (SSE) 2,303 6.3 -17.2°
Sets 17:59:57 0° 151° (SSE) 2,751 6.7 -17.4°
